This is the latest recevied weather packets stored in our database for station/object N5JXS. If no packets are shown the sender has not sent any weather packets the latest 10 day(s).
| Time | Temp. | Humidity | Pressure | Rain* | Wind** | Luminosity | Snow |
|---|---|---|---|---|---|---|---|
| 1788452660 | 23.89° C | 29% | 1025 hPa | 0 mm | - | 545 W/m² | - |
| 1788452355 | 23.33° C | 30% | 1024.7 hPa | 0 mm | - | 521 W/m² | - |
| 1788452050 | 23.33° C | 29% | 1025 hPa | 0 mm | - | 55 W/m² | - |
| 1788451746 | 22.78° C | 30% | 1024.6 hPa | 0 mm | - | 62 W/m² | - |
| 1788451445 | 22.78° C | 32% | 1025 hPa | 0 mm | - | 109 W/m² | - |
| 1788451144 | 22.78° C | 32% | 1025 hPa | 0 mm | - | 81 W/m² | - |
| 1788450839 | 22.22° C | 34% | 1025 hPa | 0 mm | - | 26 W/m² | - |
| 1788450535 | 22.22° C | 33% | 1025.1 hPa | 0 mm | - | 31 W/m² | - |
| 1788450233 | 22.22° C | 34% | 1025 hPa | 0 mm | - | 27 W/m² | - |
| 1788449931 | 22.22° C | 33% | 1024.7 hPa | 0 mm | - | 29 W/m² | - |
| 1788449627 | 21.67° C | 33% | 1025 hPa | 0 mm | - | 42 W/m² | - |
| 1788449323 | 21.67° C | 34% | 1024.7 hPa | 0 mm | - | 120 W/m² | - |
| 1788449018 | 21.67° C | 34% | 1025.1 hPa | 0 mm | - | 88 W/m² | - |
| 1788448713 | 21.67° C | 34% | 1025 hPa | 0 mm | - | 24 W/m² | - |
| 1788448409 | 21.67° C | 35% | 1025 hPa | 0 mm | - | 23 W/m² | - |
| 1788448109 | 21.11° C | 34% | 1025.1 hPa | 0 mm | - | 24 W/m² | - |
| 1788447803 | 21.11° C | 36% | 1025 hPa | 0 mm | - | 31 W/m² | - |
| 1788447498 | 21.11° C | 36% | 1025.2 hPa | 0 mm | - | 41 W/m² | - |
| 1788447193 | 20.56° C | 36% | 1025 hPa | 0 mm | - | 22 W/m² | - |
| 1788446893 | 20.56° C | 36% | 1024.8 hPa | 0 mm | - | 22 W/m² | - |
| 1788446588 | 20.56° C | 37% | 1025.2 hPa | 0 mm | - | 37 W/m² | - |
| 1788446284 | 20.56° C | 36% | 1025 hPa | 0 mm | - | 21 W/m² | - |
| 1788445980 | 20° C | 37% | 1025.1 hPa | 0 mm | - | 38 W/m² | - |
| 1788445675 | 19.44° C | 38% | 1024.8 hPa | 0 mm | - | 41 W/m² | - |
| 1788445371 | 18.89° C | 41% | 1025.2 hPa | 0 mm | - | 39 W/m² | - |
* Rain latest hour (hover to see other rain measurements)
** Current wind speed in m/s (hover to see current wind gust speed)